FW8922 Weather Reports


Display with metric or nautical units.
time (UTC)temp
F
wind
direction
speed
MPH
gust
MPH
rain 1hr
in
rain 24hr
in
rain mn
in
humidity
%
barometer
mb
20260507022417 44 90 0.0 2.0 0.00 0.38 0.38 83 1017.1
20260507021913 44 105 0.0 0.0 0.00 0.38 0.38 83 1016.7
20260507021408 44 105 0.0 0.0 0.00 0.38 0.38 83 1017.0
20260507020906 44 105 0.0 0.0 0.00 0.38 0.38 83 1016.9
20260507020403 44 105 0.0 0.0 0.00 0.38 0.38 82 1016.9
20260507015900 44 105 0.0 0.0 0.00 0.38 0.38 82 1016.8
20260507015358 44 105 0.0 0.0 0.00 0.38 0.38 81 1016.5
20260507014855 45 105 0.0 0.0 0.00 0.38 0.38 80 1016.5
20260507014351 44 105 0.0 0.0 0.00 0.38 0.38 79 1016.4
20260507013847 45 105 0.0 0.0 0.00 0.38 0.38 78 1016.4
20260507013344 45 105 0.0 0.0 0.00 0.38 0.38 77 1016.3
20260507012842 46 105 0.0 0.0 0.00 0.38 0.38 77 1016.4
20260507012338 46 105 0.0 0.0 0.00 0.38 0.38 76 1016.2
20260507011835 46 105 0.0 0.0 0.00 0.38 0.38 74 1016.5
20260507011332 47 105 0.0 0.0 0.00 0.38 0.38 72 1016.2
20260507010826 48 106 0.0 2.0 0.00 0.38 0.38 70 1016.3
20260507010321 48 0 0.0 0.0 0.00 0.38 0.38 70 1016.4
20260507005819 50 0 0.0 0.0 0.00 0.38 0.38 69 1016.2
20260507005316 50 0 0.0 0.0 0.00 0.38 0.38 67 1016.2
20260507004812 51 0 0.0 0.0 0.00 0.38 0.38 66 1016.2
20260507004310 52 0 0.0 0.0 0.00 0.38 0.38 65 1016.2
20260507003807 52 286 0.0 3.0 0.00 0.38 0.38 65 1016.1
20260507003302 52 7 0.0 2.0 0.00 0.38 0.38 64 1016.0
20260507002757 53 23 0.0 2.0 0.00 0.38 0.38 64 1015.9
20260507002254 53 352 0.0 3.0 0.00 0.38 0.38 63 1015.9
20260507001751 53 270 0.0 3.0 0.00 0.38 0.38 63 1015.9
20260507001248 53 352 0.0 2.0 0.00 0.38 0.38 62 1015.9
20260507000744 54 286 0.0 4.0 0.00 0.38 0.38 61 1015.7
20260507000240 54 340 2.0 5.0 0.00 0.38 0.38 61 1015.7
20260506235737 54 300 0.0 4.0 0.00 0.38 0.38 60 1015.9
20260506235232 54 330 3.0 5.0 0.00 0.38 0.38 60 1015.7
20260506234730 54 301 3.0 5.0 0.00 0.38 0.38 59 1015.8
20260506234227 54 318 4.0 6.0 0.00 0.38 0.38 59 1015.7
20260506233724 54 290 3.0 7.0 0.00 0.38 0.38 60 1015.6
20260506233221 54 352 0.0 4.0 0.00 0.38 0.38 60 1015.6
20260506232717 54 294 0.0 3.0 0.00 0.38 0.38 59 1015.8
20260506232212 55 294 3.0 3.0 0.00 0.38 0.38 59 1015.6
20260506231710 55 301 3.0 5.0 0.00 0.38 0.38 58 1015.6
20260506231208 55 294 0.0 3.0 0.00 0.38 0.38 60 1015.6
20260506230704 55 294 3.0 5.0 0.00 0.38 0.38 59 1015.8
20260506230201 55 0 2.0 7.0 0.00 0.38 0.38 58 1015.8
20260506225658 55 328 0.0 4.0 0.00 0.38 0.38 59 1015.8
20260506225155 56 270 0.0 3.0 0.00 0.38 0.38 58 1015.8
20260506224651 56 295 3.0 5.0 0.00 0.38 0.38 57 1015.8
20260506224148 56 289 0.0 4.0 0.00 0.38 0.38 58 1016.0
20260506223645 56 270 0.0 2.0 0.00 0.38 0.38 59 1015.9
20260506223140 55 293 0.0 4.0 0.00 0.38 0.38 56 1015.9
20260506222637 56 11 0.0 6.0 0.00 0.38 0.38 57 1015.8
20260506222133 56 352 0.0 6.0 0.00 0.38 0.38 57 1016.3
20260506221631 57 346 0.0 3.0 0.00 0.38 0.38 58 1016.1
20260506221129 56 0 0.0 7.0 0.00 0.38 0.38 56 1016.2
20260506220626 56 295 3.0 6.0 0.00 0.38 0.38 54 1016.1
20260506220121 56 306 2.0 6.0 0.00 0.38 0.38 54 1016.2
20260506215618 56 283 0.0 5.0 0.00 0.38 0.38 54 1016.0
20260506215113 56 352 3.0 9.0 0.00 0.38 0.38 55 1015.8
20260506214610 56 288 4.0 6.0 0.00 0.38 0.38 56 1015.9
20260506214108 56 303 5.0 7.0 0.00 0.38 0.38 58 1015.8
20260506213606 56 327 3.0 6.0 0.00 0.38 0.38 57 1015.9
20260506213103 56 273 5.0 5.0 0.00 0.38 0.38 58 1015.8
20260506212600 56 342 3.0 9.0 0.00 0.38 0.38 55 1015.9
20260506212054 57 293 0.0 5.0 0.00 0.38 0.38 60 1015.7
20260506211551 57 289 0.0 3.0 0.00 0.38 0.38 60 1015.6
20260506211048 56 23 0.0 5.0 0.00 0.38 0.38 61 1015.6
20260506210544 56 7 0.0 3.0 0.00 0.38 0.38 61 1015.7
20260506210041 56 74 0.0 2.0 0.00 0.38 0.38 62 1015.6
20260506205538 56 257 0.0 3.0 0.00 0.38 0.38 62 1015.7
20260506205033 56 350 0.0 7.0 0.00 0.38 0.38 61 1015.7
20260506204531 56 277 0.0 5.0 0.00 0.38 0.38 61 1015.5
20260506204028 56 35 2.0 3.0 0.00 0.38 0.38 61 1015.7
20260506203526 55 282 3.0 7.0 0.00 0.38 0.38 60 1015.6
20260506203022 55 283 2.0 7.0 0.00 0.38 0.38 59 1015.5
20260506202520 56 260 3.0 3.0 0.00 0.38 0.38 61 1015.5
20260506202016 56 303 3.0 4.0 0.00 0.38 0.38 60 1015.8
20260506201514 56 0 0.0 5.0 0.00 0.38 0.38 59 1015.8
20260506201010 56 0 0.0 4.0 0.00 0.38 0.38 59 1015.6
20260506200507 57 279 0.0 4.0 0.00 0.38 0.38 60 1015.5
20260506200004 56 14 2.0 5.0 0.00 0.38 0.38 60 1015.6
20260506195501 56 278 0.0 3.0 0.00 0.38 0.38 60 1015.2
20260506194956 56 315 3.0 6.0 0.00 0.38 0.38 59 1015.5
20260506194454 56 254 2.0 5.0 0.00 0.38 0.38 62 1015.3
20260506193950 55 286 2.0 5.0 0.00 0.38 0.38 61 1015.3
20260506193448 56 277 2.0 6.0 0.00 0.38 0.38 59 1015.5
20260506192944 56 0 0.0 3.0 0.00 0.38 0.38 61 1015.3
20260506192442 56 291 0.0 11.0 0.00 0.38 0.38 59 1015.6
20260506191938 56 270 3.0 9.0 0.00 0.38 0.38 62 1015.5
20260506191435 56 278 2.0 6.0 0.00 0.38 0.38 61 1015.6
20260506190931 56 279 7.0 8.0 0.00 0.38 0.38 60 1015.5
20260506190428 56 300 0.0 4.0 0.00 0.38 0.38 60 1015.5
20260506185925 56 278 5.0 8.0 0.00 0.38 0.38 58 1015.6
20260506185422 57 337 3.0 5.0 0.00 0.38 0.38 61 1015.7
20260506184919 57 261 3.0 5.0 0.00 0.38 0.38 60 1015.7
20260506184416 56 355 3.0 6.0 0.00 0.38 0.38 59 1015.7
20260506183913 57 324 3.0 6.0 0.00 0.38 0.38 58 1015.7
20260506183408 58 294 6.0 8.0 0.00 0.38 0.38 57 1015.5
20260506182906 58 266 7.0 7.0 0.00 0.38 0.38 59 1015.3
20260506182403 58 24 3.0 4.0 0.00 0.38 0.38 60 1015.1
20260506181900 57 293 5.0 7.0 0.00 0.38 0.38 61 1014.9
20260506181358 56 353 0.0 7.0 0.00 0.38 0.38 62 1015.0
20260506180855 56 328 5.0 5.0 0.00 0.38 0.38 63 1015.2
20260506180351 56 12 0.0 5.0 0.00 0.38 0.38 63 1015.3
20260506175848 56 340 5.0 5.0 0.00 0.38 0.38 60 1015.2
20260506175344 56 290 0.0 3.0 0.00 0.38 0.38 61 1015.6
20260506174841 56 285 2.0 5.0 0.00 0.38 0.38 61 1015.8
20260506174339 56 297 0.0 5.0 0.00 0.38 0.38 59 1015.6
20260506173837 56 270 2.0 4.0 0.00 0.38 0.38 61 1015.7
20260506173333 57 305 6.0 6.0 0.00 0.38 0.38 61 1015.8
20260506172830 57 279 3.0 6.0 0.00 0.38 0.38 61 1015.9
20260506172327 57 154 2.0 3.0 0.00 0.38 0.38 62 1015.5
20260506171824 57 172 0.0 6.0 0.00 0.38 0.38 62 1015.7
20260506171321 57 270 3.0 7.0 0.00 0.38 0.38 59 1015.7
20260506170819 58 253 0.0 5.0 0.00 0.38 0.38 59 1015.7
20260506170315 58 0 0.0 5.0 0.00 0.38 0.38 60 1015.7
20260506165814 58 75 2.0 5.0 0.00 0.38 0.38 60 1015.6
20260506165311 57 301 6.0 12.0 0.00 0.38 0.38 60 1015.5
20260506164807 57 21 0.0 7.0 0.00 0.38 0.38 63 1015.5
20260506164304 57 294 3.0 7.0 0.00 0.38 0.38 61 1015.6
20260506163801 57 279 0.0 5.0 0.00 0.38 0.38 62 1015.3
20260506163256 58 346 5.0 6.0 0.00 0.38 0.38 63 1015.2
20260506162752 57 41 3.0 5.0 0.00 0.38 0.38 63 1015.7
20260506162250 56 12 2.0 9.0 0.00 0.38 0.38 61 1015.6
20260506161747 57 348 2.0 7.0 0.00 0.38 0.38 63 1015.7
20260506161244 56 32 0.0 8.0 0.00 0.38 0.38 63 1015.7
20260506160742 57 313 4.0 6.0 0.00 0.38 0.38 66 1016.0
20260506160238 57 297 0.0 7.0 0.00 0.38 0.38 66 1015.9
20260506155737 56 19 3.0 18.0 0.00 0.38 0.38 68 1015.3
20260506155233 55 337 0.0 6.0 0.00 0.38 0.38 69 1015.5
20260506153341 54 314 7.0 9.0 0.00 0.38 0.38 68 1015.5
20260506152837 54 354 2.0 9.0 0.00 0.38 0.38 71 1015.5
20260506152335 54 10 4.0 7.0 0.00 0.38 0.38 72 1015.6
20260506151833 54 285 3.0 11.0 0.00 0.38 0.38 69 1015.2
20260506151329 55 321 5.0 6.0 0.00 0.38 0.38 71 1015.2
20260506150827 54 0 0.0 7.0 0.00 0.38 0.38 74 1014.8
20260506150324 54 297 4.0 7.0 0.00 0.38 0.38 73 1014.6
20260506145820 54 0 3.0 5.0 0.00 0.38 0.38 74 1014.7
20260506145317 54 7 5.0 6.0 0.00 0.38 0.38 78 1014.5
20260506144815 53 356 5.0 6.0 0.00 0.38 0.38 78 1014.5
20260506144311 52 337 3.0 9.0 0.00 0.38 0.38 75 1014.5
20260506143809 53 90 3.0 6.0 0.00 0.38 0.38 78 1014.3
20260506143306 52 356 3.0 8.0 0.00 0.38 0.38 77 1014.5
20260506142804 52 50 6.0 7.0 0.00 0.38 0.38 79 1014.7
20260506142305 51 331 0.0 7.0 0.00 0.38 0.38 78 1014.5
20260506141800 51 270 5.0 6.0 0.00 0.38 0.38 79 1014.6
20260506141258 51 293 5.0 9.0 0.00 0.38 0.38 79 1014.6
20260506140755 50 307 4.0 6.0 0.00 0.38 0.38 81 1014.8
20260506140252 49 286 5.0 12.0 0.00 0.38 0.38 81 1014.4
20260506135749 49 308 8.0 9.0 0.00 0.38 0.38 82 1014.5
20260506135245 49 330 3.0 8.0 0.00 0.38 0.38 85 1014.5
20260506134742 47 289 3.0 11.0 0.00 0.38 0.38 84 1014.5
20260506134238 47 276 9.0 9.0 0.00 0.38 0.38 88 1014.6
20260506133736 47 287 4.0 7.0 0.00 0.38 0.38 90 1014.4
20260506133232 47 291 2.0 5.0 0.00 0.38 0.38 91 1014.2
20260506132729 46 292 3.0 6.0 0.00 0.38 0.38 91 1014.1
20260506132226 46 299 4.0 6.0 0.00 0.38 0.38 92 1014.2
20260506131724 46 319 3.0 6.0 0.00 0.38 0.38 93 1014.1
20260506131220 45 295 7.0 10.0 0.00 0.38 0.38 94 1014.1
20260506130717 45 324 3.0 8.0 0.00 0.38 0.38 95 1014.0
20260506130214 45 34 3.0 7.0 0.00 0.38 0.38 96 1014.0
20260506125712 45 334 2.0 5.0 0.00 0.38 0.38 98 1013.9
20260506125210 45 345 0.0 3.0 0.00 0.38 0.38 98 1014.1
20260506124707 44 45 3.0 5.0 0.00 0.38 0.38 99 1014.2
20260506124206 44 285 5.0 5.0 0.00 0.38 0.38 99 1014.0
20260506123702 44 300 3.0 4.0 0.00 0.38 0.38 99 1013.8
20260506123201 45 33 0.0 3.0 0.00 0.38 0.38 99 1013.6
20260506122657 44 7 2.0 3.0 0.00 0.38 0.38 99 1013.7
20260506122155 44 20 0.0 3.0 0.00 0.38 0.38 99 1013.4
20260506121653 44 346 2.0 3.0 0.00 0.38 0.38 99 1013.5
20260506121149 43 6 0.0 5.0 0.00 0.38 0.38 99 1013.4
20260506120647 44 12 4.0 4.0 0.00 0.38 0.38 99 1013.6
20260506120144 43 7 2.0 5.0 0.00 0.38 0.38 99 1013.5
20260506115642 44 18 3.0 3.0 0.00 0.38 0.38 99 1013.0
20260506115140 44 23 0.0 4.0 0.00 0.38 0.38 99 1012.8
20260506114637 43 345 0.0 4.0 0.00 0.38 0.38 99 1012.7
20260506114135 43 331 2.0 4.0 0.00 0.38 0.38 99 1012.3
20260506113633 43 40 0.0 4.0 0.00 0.38 0.38 99 1012.3
20260506113130 43 20 2.0 5.0 0.00 0.38 0.38 99 1012.8
20260506112626 43 37 3.0 3.0 0.00 0.38 0.38 99 1012.2
20260506112124 43 0 2.0 3.0 0.00 0.38 0.38 99 1012.2
20260506111622 43 18 2.0 3.0 0.00 0.38 0.38 99 1012.5
20260506111119 43 0 2.0 4.0 0.00 0.38 0.38 99 1012.6
20260506110616 43 12 2.0 4.0 0.00 0.38 0.38 99 1012.4
20260506110114 43 0 2.0 3.0 0.00 0.38 0.38 99 1012.3
20260506105610 43 301 3.0 5.0 0.00 0.38 0.38 99 1012.1
20260506105107 43 29 2.0 5.0 0.00 0.38 0.38 99 1012.2
20260506104605 43 15 0.0 5.0 0.00 0.38 0.38 99 1011.7
20260506104102 43 19 0.0 4.0 0.00 0.38 0.38 99 1011.5
20260506103600 42 47 5.0 6.0 0.00 0.38 0.38 99 1011.5
20260506103056 42 29 0.0 4.0 0.00 0.38 0.38 99 1011.3
20260506102555 43 0 2.0 4.0 0.00 0.38 0.38 99 1011.5
20260506102052 43 16 3.0 3.0 0.00 0.38 0.38 99 1011.5
20260506101548 42 54 2.0 5.0 0.00 0.38 0.38 99 1011.7
20260506101046 42 24 3.0 4.0 0.00 0.38 0.38 99 1011.6
20260506100544 42 35 2.0 3.0 0.00 0.38 0.38 99 1011.5
20260506100041 43 6 4.0 4.0 0.00 0.38 0.38 99 1011.3
20260506095540 42 327 3.0 5.0 0.00 0.38 0.38 99 1011.4
20260506095036 42 348 0.0 7.0 0.00 0.38 0.38 99 1011.4
20260506094534 42 5 2.0 7.0 0.00 0.38 0.38 99 1011.5
20260506094032 42 29 0.0 5.0 0.00 0.38 0.38 99 1011.3
20260506093530 42 341 3.0 5.0 0.00 0.38 0.38 99 1011.0
20260506093027 42 66 0.0 4.0 0.00 0.38 0.38 99 1010.9
20260506092525 42 29 0.0 6.0 0.00 0.38 0.38 99 1010.9
20260506092021 42 74 0.0 6.0 0.00 0.38 0.38 99 1010.4
20260506091520 42 26 3.0 5.0 0.00 0.38 0.38 99 1010.9
20260506091016 42 20 0.0 5.0 0.00 0.38 0.38 99 1010.8
20260506090514 42 334 2.0 4.0 0.00 0.38 0.38 99 1010.8
20260506090010 42 23 2.0 5.0 0.00 0.38 0.38 99 1010.5
20260506085507 42 55 3.0 7.0 0.00 0.38 0.38 99 1010.9
20260506085004 42 49 2.0 5.0 0.00 0.38 0.38 99 1010.9
20260506084500 42 30 0.0 5.0 0.00 0.38 0.38 99 1011.1
20260506083956 42 23 0.0 6.0 0.00 0.38 0.38 99 1010.6
20260506083454 42 24 3.0 3.0 0.00 0.38 0.38 99 1010.2
20260506082951 42 48 3.0 4.0 0.00 0.38 0.38 99 1010.3
20260506082448 42 78 2.0 6.0 0.02 0.38 0.38 99 1010.3
20260506081943 42 63 4.0 7.0 0.02 0.38 0.38 99 1010.5
20260506081442 43 21 3.0 6.0 0.00 0.37 0.37 99 1010.7
20260506080939 43 29 2.0 5.0 0.02 0.37 0.37 99 1010.9
20260506080436 43 23 2.0 3.0 0.02 0.37 0.37 99 1010.6
20260506073420 42 26 2.0 3.0 0.09 0.36 0.36 99 1010.6
20260506072917 43 0 0.0 7.0 0.09 0.35 0.35 99 1010.8
20260506072414 42 328 2.0 4.0 0.09 0.34 0.34 99 1010.4
20260506071912 43 334 0.0 5.0 0.05 0.34 0.34 99 1010.7
20260506071410 43 15 3.0 6.0 0.00 0.33 0.33 99 1010.6
20260506070906 43 356 3.0 7.0 0.00 0.33 0.33 99 1010.6
20260506070403 43 26 4.0 7.0 0.00 0.33 0.33 99 1010.6
20260506062341 44 331 0.0 6.0 0.05 0.32 0.32 99 1010.8
20260506061836 44 7 0.0 6.0 0.05 0.32 0.32 99 1010.6
20260506061333 44 20 2.0 7.0 0.07 0.31 0.31 99 1010.6
20260506060832 45 26 2.0 7.0 0.09 0.31 0.31 99 1010.6
20260506060329 45 18 3.0 7.0 0.05 0.29 0.29 99 1010.5
20260506051301 46 6 0.0 5.0 0.21 0.21 0.21 99 1010.9
20260506050759 46 47 4.0 4.0 0.24 0.19 0.19 99 1011.0
20260506050256 46 270 4.0 7.0 0.21 0.17 0.17 99 1011.2
20260506044747 46 344 3.0 9.0 0.31 0.12 0.12 99 1011.0
20260506044244 46 35 2.0 5.0 0.24 0.09 0.09 99 1010.6
20260506043741 46 354 2.0 6.0 0.14 0.06 0.06 99 1010.3
20260506043238 46 0 2.0 5.0 0.09 0.05 0.05 99 1010.1
20260506042737 46 353 0.0 3.0 0.05 0.04 0.04 99 1010.3
20260506042235 46 73 3.0 3.0 0.05 0.03 0.03 99 1010.1
20260506041733 46 318 4.0 6.0 0.05 0.03 0.03 99 1009.8
20260506041230 46 0 3.0 5.0 0.09 0.02 0.02 99 1010.3
20260506040728 46 297 2.0 5.0 0.14 0.02 0.02 99 1010.4
20260506040224 46 297 0.0 6.0 0.21 0.01 0.01 99 1010.6
20260506035721 46 80 4.0 5.0 0.33 1.05 1.05 99 1010.7
20260506035218 47 290 3.0 7.0 0.26 1.02 1.02 99 1010.6
20260506034715 47 0 3.0 5.0 0.07 0.98 0.98 99 1010.9
20260506034212 47 303 2.0 5.0 0.07 0.98 0.98 99 1010.8
20260506033710 47 358 6.0 6.0 0.02 0.97 0.97 99 1010.2
20260506033206 47 14 3.0 5.0 0.00 0.96 0.96 99 1010.1
20260506032703 47 0 5.0 9.0 0.00 0.96 0.96 99 1009.9
20260506032200 47 358 4.0 5.0 0.00 0.96 0.96 99 1010.1
20260506031657 48 0 3.0 6.0 0.00 0.96 0.96 99 1009.9
20260506031154 47 40 2.0 4.0 0.00 0.96 0.96 99 1009.8
20260506030653 48 279 3.0 6.0 0.00 0.96 0.96 99 1010.0
20260506030149 48 6 4.0 5.0 0.00 0.96 0.96 99 1010.1
20260506025646 48 29 0.0 3.0 0.00 0.96 0.96 99 1010.2
20260506025142 48 90 0.0 4.0 0.00 0.96 0.96 99 1010.0
20260506024640 48 73 3.0 3.0 0.02 0.96 0.96 99 1010.1
20260506024136 48 0 3.0 5.0 0.05 0.96 0.96 99 1010.2
20260506023632 48 71 3.0 5.0 0.07 0.96 0.96 99 1010.3
20260506023130 48 0 0.0 3.0 0.07 0.95 0.95 99 1010.2